星链-3342 (STARLINK-3342 )

导读

STARLINK-3342是美国SpaceX公司星链(Starlink)卫星互联网项目中的一颗低地球轨道卫星,于2022年1月6日发射升空。星链项目旨在通过大规模部署低轨卫星,为全球提供高速低延迟的宽带互联网服务,尤其覆盖偏远及基础设施薄弱地区。 作为数千颗星链卫星组网的组成部分,STARLINK-3342与其他卫星协同工作,支撑全球无缝覆盖的空间通信网络。不过,星链大规模星座也引发了太空轨道资源竞争、天文观测干扰等争议。

基本信息
目录编号:
50816
目录名称:
STARLINK-3342
国际标识:
2022-001P
轨道中心:
EARTH
卫星名称:
星链-3342
卫星全名:
星链-3342 (STARLINK-3342 )
卫星状态:
在轨 (已飞行1702 天)
发射日期:
2022-01-06 UTC
国别 :
美国 (US)
星等 :
--
轨道信息
数据来源 国际轨道数据 AOE轨道数据
星历时间 2026-09-04T09:46:30+0800
15小时前
查看轨道信息
2026-08-30T18:00:00+0800
5天前
查看轨道信息
半长轴 6882.856km 6883.523km
偏心率 0.0002777 0.0002857
轨道倾角 53.213° 53.209°
近地点辐角 74.123° 71.515°
升交点赤经 76.423° 97.706°
平近点角 286.007° 345.298°
近地点 502.807km 503.419km
远地点 506.631km 507.353km
周期 94.714分钟 94.727分钟
每日圈数 15.203716 15.201508
详细信息
固有亮度:
5
最大亮度:
2.5
卫星平台:
Starlink v1.5
覆盖范围:
全球
运营商:
太空探索技术公司
运营商所在国:
美国
制造商(研发单位):
太空探索技术公司
制造商所在国:
美国
使用方式:
暂无
卫星简介
星链(Starlink)计划是由太空探索技术公司(SpaceX)提出的一个巨型低轨卫星互联网星座项目,计划在2019年至2024年间在太空搭建由约1.2万颗卫星组成的“星链”网络,其中1584颗将部署在地球上空550千米处的近地轨道,并从2020年开始工作。该卫星仍在工作。
2D轨道图
3D轨道图
轨道高度分析图
轨道倾角分析图
轨道综合分析图
查看轨道综合分析图
交会数据列表
事件ID 空间交会对象 最接近时刻(TCA) 交会距离 交会风险概率(CRP) 交会风险指数(CRI) 操作
CDM_260827-184805-081606-190722
OBJECT P (61907)
2026-08-27T
18:48:17+0000
2.458 km
极远距离
1.791358E-6 低风险 0.4
CDM_260905-014905-081605-951021
2026-09-05T
01:49:16+0000
2.595 km
极远距离
1.468247E-6 低风险 0.38
CDM_260827-202305-081606-190722
OBJECT P (61907)
2026-08-27T
20:23:07+0000
2.818 km
极远距离
1.435835E-6 低风险 0.38